Location: Caltech
(34.1382°N, 118.1253°W)
Time: 05:22:46
(UTC-07:00)

SL-08 R/B - Visible Passes

Search period start: 24 June 2017 00:00
Search period end: 04 July 2017 00:00
Orbit: 674 x 740 km, 98.3° (Epoch: 23 June)

Date Brightness Start Highest point End Pass type
(mag) Time Alt. Az. Time Alt. Az. Time Alt. Az.
24 Jun 3.2 02:57:17 86° SW 02:57:20 86° WSW 03:02:11 10° NNW visible
25 Jun 5.1 02:03:07 24° E 02:04:00 25° ENE 02:07:56 10° NNE visible
25 Jun 4.4 03:42:06 28° W 03:42:06 28° W 03:45:49 10° NW visible
26 Jun 3.4 02:47:56 75° E 02:48:03 75° ENE 02:52:51 10° N visible
27 Jun 5.4 01:53:46 19° E 01:54:46 20° ENE 01:58:16 10° NNE visible
27 Jun 4.1 03:32:45 35° W 03:32:45 35° W 03:36:44 10° NNW visible
28 Jun 3.7 02:38:35 59° E 02:38:46 59° ENE 02:43:28 10° N visible
28 Jun 5.4 04:17:34 11° W 04:17:34 11° W 04:18:30 10° WNW visible
29 Jun 5.6 01:44:25 15° E 01:45:34 16° ENE 01:48:30 10° NNE visible
29 Jun 3.8 03:23:25 44° W 03:23:25 44° W 03:27:35 10° NNW visible
30 Jun 4.1 02:29:15 46° E 02:29:30 46° ENE 02:34:04 10° N visible
30 Jun 5.2 04:08:14 14° W 04:08:14 14° W 04:10:11 10° WNW visible
01 Jul 5.9 01:35:05 12° E 01:36:22 13° ENE 01:38:30 10° NE visible
01 Jul 3.5 03:14:04 55° W 03:14:04 55° W 03:18:23 10° NNW visible
02 Jul 4.5 02:19:55 36° E 02:20:15 37° ENE 02:24:35 10° N visible
02 Jul 5.0 03:58:54 18° W 03:58:54 18° W 04:01:27 10° NW visible
03 Jul 6.1 01:26:53 10° ENE 01:27:11 10° ENE 01:27:29 10° ENE visible
03 Jul 3.3 03:04:44 69° WNW 03:04:44 69° WNW 03:09:08 10° NNW visible
